This is the latest recevied weather packets stored in our database for station/object K7D3. If no packets are shown the sender has not sent any weather packets the latest 10 day(s).
| Time | Temp. | Humidity | Pressure | Rain* | Wind** | Luminosity | Snow |
|---|---|---|---|---|---|---|---|
| 1777379631 | 11.11° C | 91% | - | 0 mm | 4.02 m/s, 295° | - | - |
| 1777379152 | 11.67° C | 92% | - | 0 mm | 4.92 m/s, 318° | - | - |
| 1777378670 | 11.67° C | 91% | - | 0 mm | 4.47 m/s, 305° | - | - |
| 1777378191 | 12.22° C | 92% | - | 0 mm | 3.13 m/s, 302° | - | - |
| 1777377712 | 12.22° C | 91% | - | 0 mm | 4.92 m/s, 276° | - | - |
| 1777377229 | 12.22° C | 91% | - | 0 mm | 4.47 m/s, 318° | - | - |
| 1777376750 | 12.78° C | 91% | - | 0 mm | 3.58 m/s, 291° | - | - |
| 1777376272 | 12.78° C | 91% | - | 0 mm | 3.13 m/s, 4° | - | - |
| 1777375786 | 12.78° C | 91% | - | 0 mm | 4.02 m/s, 17° | - | - |
| 1777375307 | 12.78° C | 91% | - | 0 mm | 3.13 m/s, 308° | - | - |
| 1777374829 | 13.33° C | 91% | - | 0 mm | 4.02 m/s, 281° | - | - |
| 1777374346 | 13.33° C | 92% | - | 0 mm | 4.92 m/s, 309° | - | - |
| 1777373867 | 13.33° C | 92% | - | 0 mm | 3.13 m/s, 350° | - | - |
| 1777373389 | 13.33° C | 92% | - | 0 mm | 4.02 m/s, 291° | - | - |
| 1777372906 | 13.33° C | 92% | - | 0 mm | 3.13 m/s, 315° | - | - |
| 1777372428 | 13.33° C | 92% | - | 0 mm | 4.02 m/s, 301° | - | - |
| 1777371949 | 13.33° C | 93% | - | 0 mm | 4.47 m/s, 287° | - | - |
| 1777371467 | 13.89° C | 93% | - | 0 mm | 4.92 m/s, 280° | - | - |
| 1777370988 | 13.89° C | 93% | - | 0 mm | 4.02 m/s, 284° | - | - |
| 1777370509 | 14.44° C | 94% | - | 0 mm | 4.47 m/s, 305° | - | - |
| 1777370027 | 14.44° C | 93% | - | 0 mm | 3.13 m/s, 300° | - | - |
| 1777369548 | 14.44° C | 94% | - | 0 mm | 4.02 m/s, 301° | - | - |
| 1777369069 | 15° C | 94% | - | 0 mm | 3.13 m/s, 326° | - | - |
| 1777368587 | 15° C | 95% | - | 0 mm | 2.24 m/s, 276° | - | - |
| 1777368108 | 15° C | 95% | - | 0 mm | 4.47 m/s, 300° | - | - |
* Rain latest hour (hover to see other rain measurements)
** Current wind speed in m/s (hover to see current wind gust speed)